Simultaneous Nadir Overpasses (SNOs) Predictions

Prediction of SNOs between GOES-15 and METOP-B Satellite Orbit:

Table of predicted SNOs for the next 14.0 days since TLE Epoch: 7/10/2020
Index Date Time (GOES-15) GOES-15 Lat,Lon METOP-B Lat,Lon Distance(km) Time Diff (sec)
1 07/12/2020 06:05:55 -0.02,-128.32 -0.08,-128.55 26.67 80
2 07/14/2020 18:04:06 0.02,-128.36 -0.03,-128.12 26.47 80
3 07/16/2020 06:23:06 -0.02,-128.37 -1.00,-132.72 495.40 80
4 07/17/2020 05:59:46 -0.02,-128.38 0.14,-127.73 74.38 80
5 07/18/2020 18:18:38 0.02,-128.38 0.88,-132.29 444.95 80
6 07/19/2020 18:00:37 0.02,-128.39 -0.19,-127.28 124.84 80
7 07/21/2020 06:19:36 -0.02,-128.39 -0.83,-131.88 398.01 80
8 07/22/2020 05:56:17 -0.02,-128.39 0.31,-126.89 170.77 80
9 07/23/2020 18:15:08 0.01,-128.38 0.72,-131.45 350.19 80
10 07/24/2020 17:57:09 0.01,-128.38 -0.42,-126.46 218.93 80
